TimeCST,TemperatureF,Dew PointF,Humidity,Sea Level PressureIn,VisibilityMPH,Wind Direction,Wind SpeedMPH,Gust SpeedMPH,PrecipitationIn,Events,Conditions,WindDirDegrees,DateUTC
1:35 AM,37.8,14.9,39,29.86,10.0,SSW,12.7,-,N/A,,Clear,210,2012-12-13 07:35:00
1:55 AM,38.1,15.1,39,29.87,10.0,SSW,13.8,20.7,N/A,,Clear,210,2012-12-13 07:55:00
2:15 AM,37.4,15.4,41,29.88,10.0,SSW,13.8,-,N/A,,Clear,210,2012-12-13 08:15:00
2:35 AM,36.5,15.6,43,29.88,10.0,SSW,10.4,-,N/A,,Clear,210,2012-12-13 08:35:00
2:55 AM,35.6,15.6,44,29.89,10.0,SSW,9.2,-,N/A,,Clear,200,2012-12-13 08:55:00
3:15 AM,35.6,15.8,44,29.88,10.0,SSW,13.8,-,N/A,,Clear,200,2012-12-13 09:15:00
3:35 AM,35.6,15.8,44,29.88,10.0,SSW,13.8,-,N/A,,Clear,210,2012-12-13 09:35:00
3:55 AM,35.2,15.8,45,29.88,10.0,SW,13.8,-,N/A,,Clear,220,2012-12-13 09:55:00
4:15 AM,34.9,15.8,46,29.88,10.0,SSW,11.5,-,N/A,,Clear,210,2012-12-13 10:15:00
4:35 AM,34.7,15.8,46,29.89,10.0,SSW,9.2,-,N/A,,Clear,200,2012-12-13 10:35:00
4:55 AM,35.2,16.2,46,29.89,10.0,SSW,11.5,-,N/A,,Clear,210,2012-12-13 10:55:00
5:15 AM,35.2,16.2,46,29.89,10.0,SSW,10.4,-,N/A,,Clear,210,2012-12-13 11:15:00
5:35 AM,34.2,16.3,48,29.90,10.0,SSW,5.8,-,N/A,,Clear,200,2012-12-13 11:35:00
5:55 AM,34.2,16.3,48,29.91,10.0,SW,6.9,-,N/A,,Clear,220,2012-12-13 11:55:00
6:15 AM,32.7,16.3,51,29.91,10.0,SSW,3.5,-,N/A,,Clear,200,2012-12-13 12:15:00
6:35 AM,32.0,16.5,53,29.93,10.0,SSW,5.8,-,N/A,,Clear,210,2012-12-13 12:35:00
6:55 AM,31.1,16.0,54,29.93,10.0,SSW,4.6,-,N/A,,Clear,210,2012-12-13 12:55:00
7:15 AM,30.0,15.6,55,29.93,10.0,SW,3.5,-,N/A,,Clear,220,2012-12-13 13:15:00
7:35 AM,28.0,15.3,59,29.94,10.0,SSW,3.5,-,N/A,,Clear,200,2012-12-13 13:35:00
7:55 AM,28.2,15.3,58,29.95,10.0,Calm,Calm,-,N/A,,Clear,0,2012-12-13 13:55:00
8:15 AM,29.7,15.8,56,29.96,10.0,SW,3.5,-,N/A,,Clear,230,2012-12-13 14:15:00
8:35 AM,30.7,16.5,56,29.97,10.0,WSW,3.5,-,N/A,,Clear,240,2012-12-13 14:35:00
8:55 AM,32.9,17.1,52,29.98,10.0,Calm,Calm,-,N/A,,Clear,0,2012-12-13 14:55:00
9:15 AM,33.8,17.8,52,29.98,10.0,Calm,Calm,-,N/A,,Clear,0,2012-12-13 15:15:00
9:35 AM,38.7,18.0,43,30.00,10.0,West,6.9,-,N/A,,Clear,270,2012-12-13 15:35:00
9:55 AM,41.2,19.8,42,30.00,10.0,NW,8.1,-,N/A,,Clear,310,2012-12-13 15:55:00
10:15 AM,42.1,21.7,44,30.01,10.0,NW,15.0,18.4,N/A,,Clear,320,2012-12-13 16:15:00
10:35 AM,42.1,22.8,46,30.02,10.0,NNW,13.8,-,N/A,,Clear,330,2012-12-13 16:35:00
10:55 AM,41.4,22.5,47,30.03,10.0,NNW,12.7,-,N/A,,Clear,330,2012-12-13 16:55:00
11:15 AM,41.0,21.7,46,30.03,10.0,NNW,12.7,-,N/A,,Clear,330,2012-12-13 17:15:00
11:35 AM,41.0,21.6,46,30.02,10.0,NW,11.5,-,N/A,,Clear,320,2012-12-13 17:35:00
11:55 AM,41.0,21.2,45,30.03,10.0,NW,12.7,-,N/A,,Clear,310,2012-12-13 17:55:00
12:15 PM,41.2,20.3,43,30.03,10.0,WNW,13.8,-,N/A,,Clear,300,2012-12-13 18:15:00
12:35 PM,39.4,19.6,45,30.03,10.0,NW,9.2,-,N/A,,Clear,320,2012-12-13 18:35:00
12:55 PM,39.9,18.9,43,30.03,10.0,NNW,9.2,16.1,N/A,,Clear,340,2012-12-13 18:55:00
1:15 PM,39.9,18.5,42,30.03,10.0,North,12.7,17.3,N/A,,Clear,350,2012-12-13 19:15:00
1:35 PM,41.0,18.5,40,30.03,10.0,NNW,10.4,-,N/A,,Clear,340,2012-12-13 19:35:00
1:55 PM,40.6,18.5,41,30.03,10.0,NNW,11.5,-,N/A,,Clear,340,2012-12-13 19:55:00
2:15 PM,41.9,18.3,39,30.02,10.0,North,11.5,-,N/A,,Clear,350,2012-12-13 20:15:00
2:35 PM,41.0,18.1,40,30.03,10.0,NNW,10.4,-,N/A,,Clear,340,2012-12-13 20:35:00
2:55 PM,39.0,17.8,42,30.03,10.0,North,8.1,-,N/A,,Clear,350,2012-12-13 20:55:00
3:15 PM,37.6,18.0,45,30.03,10.0,North,6.9,-,N/A,,Clear,350,2012-12-13 21:15:00
3:35 PM,37.0,17.8,46,30.04,10.0,North,8.1,-,N/A,,Clear,350,2012-12-13 21:35:00
3:55 PM,36.5,17.8,47,30.05,10.0,North,6.9,-,N/A,,Clear,350,2012-12-13 21:55:00
4:15 PM,35.6,17.6,48,30.05,10.0,North,3.5,-,N/A,,Clear,10,2012-12-13 22:15:00
4:35 PM,34.3,17.2,50,30.05,10.0,NNE,3.5,-,N/A,,Clear,20,2012-12-13 22:35:00
7:15 PM,24.1,14.4,66,30.06,10.0,NNE,4.6,-,N/A,,Clear,20,2012-12-14 01:15:00
7:35 PM,23.0,14.5,70,30.07,10.0,Calm,Calm,-,N/A,,Clear,0,2012-12-14 01:35:00
7:55 PM,21.7,13.1,69,30.07,10.0,Calm,Calm,-,N/A,,Clear,0,2012-12-14 01:55:00
8:15 PM,20.1,12.4,72,30.07,10.0,Calm,Calm,-,N/A,,Clear,0,2012-12-14 02:15:00
8:35 PM,19.6,12.7,75,30.06,7.0,Calm,Calm,-,N/A,,Clear,0,2012-12-14 02:35:00
8:55 PM,19.2,11.1,71,30.06,10.0,Calm,Calm,-,N/A,,Clear,0,2012-12-14 02:55:00
9:15 PM,20.5,12.7,72,30.07,10.0,Calm,Calm,-,N/A,,Clear,0,2012-12-14 03:15:00
9:35 PM,17.6,10.0,72,30.07,10.0,Calm,Calm,-,N/A,,Clear,0,2012-12-14 03:35:00
9:55 PM,18.7,10.4,70,30.07,10.0,Calm,Calm,-,N/A,,Clear,0,2012-12-14 03:55:00
10:15 PM,17.4,10.8,75,30.07,10.0,Calm,Calm,-,N/A,,Clear,0,2012-12-14 04:15:00
10:35 PM,18.5,12.6,78,30.07,10.0,Calm,Calm,-,N/A,,Clear,0,2012-12-14 04:35:00
10:55 PM,17.1,11.7,79,30.06,10.0,Calm,Calm,-,N/A,,Clear,0,2012-12-14 04:55:00
11:15 PM,15.8,10.2,79,30.06,10.0,Calm,Calm,-,N/A,,Clear,0,2012-12-14 05:15:00
11:35 PM,15.4,9.3,77,30.06,10.0,Calm,Calm,-,N/A,,Clear,0,2012-12-14 05:35:00
11:55 PM,15.6,9.5,77,30.06,10.0,Calm,Calm,-,N/A,,Clear,0,2012-12-14 05:55:00